Tracking 30115 objects as of 9-Feb-2025
HD Live streaming from Space Station
objects crossing your sky now

NOAA 17 DEB

Track NOAA 17 DEB now!
10-day predictions


NORAD ID: 49487
Int'l Code: 2002-032DR
Perigee: 692.1 km
Apogee: 740.4 km
Inclination: 98.8 °
Period: 99.0 minutes
Semi major axis: 7087 km
RCS: Unknown
Launch date: June 24, 2002
Source: United States (US)
Launch site: AIR FORCE WESTERN TEST RANGE (AFWTR)

Note: This is SATELLITE DEBRIS
Your satellite tracking list
Your tracking list is empty




NASA's NSSDC Master Catalog

Two Line Element Set (TLE):
1 49487U 02032DR  25038.82437834  .00020283  00000-0  46641-2 0  9994
2 49487  98.8369  38.3899 0034133  24.7650 335.5174 14.55078520204477
Source of the keplerian elements: AFSPC